Location: Bacharowice
(49.9333°N, 19.5833°E)
Time: 22:14:40
(UTC+00:00)

Cosmos 2297 - Pass Details

Date: 11 May 2021
Orbit: 837 x 857 km, 71.0° (Epoch: 21 June)

Event Time Altitude Azimuth Distance (km) Brightness Sun altitude
Exits shadow 21:22:19 33° 191° (SSW) 1,391 4.4 -19.9°
Maximum altitude 21:24:56 72° 115° (ESE) 892 3.6 -20.1°
Drops below altitude 10° 21:30:35 10° 32° (NNE) 2,476 6.7 -20.3°
Sets 21:33:03 0° 31° (NNE) 3,412 7.5 -20.4°
